Disclaimer

Please do not use the information listed here in-flight or in-navigation, as they are not provided to us by the airports but are provided by volunteers, so they might be outdated.

Search


Regions


Airport information page

Radio informations:
Tower (TWR) - 118.3 MHz
PRECISION - 120.9 MHz

Airport informations:
Latitude: 47° 41' 15.00" N
Longitude: 026° 21' 14.60" E
Elevation: 1375 feet - 419 meters
Operating hours: Remarks
Operating agency: Civil government, landing fees and diplomatic clearance may be required
Timezone: UTC+2(+3DT)
Fuel: Jet A1+, Jet A1 with icing inhibitor.

Runway information:
16/34 - 5906 x 98 feet< - >1800 x 30 meters

Recent METARs:
LRSV 221900Z 10007KT 2000 -SN BR BKN003 OVC027 M06/M07 Q1010 R16/490294
LRSV 221930Z 09007KT 2000 SN BR BKN004 OVC027 M06/M07 Q1010 R16/490294
LRSV 222000Z 09008KT 2000 SN BR BKN008 OVC027 M06/M07 Q1010 R16/490294

Airport on the map: